Location: City of Moscow
(46.7306°N, 116.9989°W)
Time: 02:28:27
(UTC+00:00)

Cosmos 1626 Rocket - Pass Details

Date: 20 March 2026
Orbit: 596 x 624 km, 82.5° (Epoch: 13 April)

Event Time Altitude Azimuth Distance (km) Brightness Sun altitude
Rises 02:22:01 0° 234° (SW) 2,899 7.9 -4.7°
Reaches altitude 10° 02:25:07 10° 258° (WSW) 1,997 7.7 -5.2°
Maximum altitude 02:27:43 15° 294° (WNW) 1,677 7.1 -5.6°
Drops below altitude 10° 02:30:20 10° 330° (NNW) 2,002 6.7 -6.1°
Sets 02:33:27 0° 354° (N) 2,910 7.2 -6.6°
